| time (UTC) | temp F | wind direction | speed MPH | gust MPH | rain 1hr in | rain 24hr in | rain mn in | humidity % | barometer mb |
| 20260503224501 | 62 | 256 | 4.0 | 4.0 | 0.00 | 0.00 | 0.00 | 35 | 989.9 |
| 20260503223959 | 62 | 334 | 4.0 | 6.0 | 0.00 | 0.00 | 0.00 | 36 | 989.8 |
| 20260503223457 | 62 | 228 | 5.0 | 7.0 | 0.00 | 0.00 | 0.00 | 37 | 989.8 |
| 20260503222952 | 62 | 226 | 4.0 | 6.0 | 0.00 | 0.00 | 0.00 | 37 | 989.9 |
| 20260503222451 | 62 | 225 | 4.0 | 4.0 | 0.00 | 0.00 | 0.00 | 35 | 989.7 |
| 20260503221949 | 62 | 247 | 5.0 | 6.0 | 0.00 | 0.00 | 0.00 | 36 | 989.8 |
| 20260503221447 | 62 | 251 | 3.0 | 3.0 | 0.00 | 0.00 | 0.00 | 37 | 989.9 |
| 20260503220943 | 62 | 247 | 5.0 | 6.0 | 0.00 | 0.00 | 0.00 | 36 | 989.8 |
| 20260503220439 | 62 | 296 | 4.0 | 7.0 | 0.00 | 0.00 | 0.00 | 36 | 989.9 |
| 20260503215937 | 63 | 246 | 6.0 | 9.0 | 0.00 | 0.00 | 0.00 | 35 | 990.0 |
| 20260503215433 | 63 | 239 | 6.0 | 7.0 | 0.00 | 0.00 | 0.00 | 35 | 989.8 |
| 20260503214931 | 63 | 255 | 6.0 | 7.0 | 0.00 | 0.00 | 0.00 | 34 | 989.9 |
| 20260503214429 | 63 | 225 | 5.0 | 7.0 | 0.00 | 0.00 | 0.00 | 34 | 990.1 |
| 20260503213926 | 63 | 304 | 8.0 | 10.0 | 0.00 | 0.00 | 0.00 | 35 | 990.0 |
| 20260503213424 | 64 | 256 | 6.0 | 7.0 | 0.00 | 0.00 | 0.00 | 33 | 990.1 |
| 20260503212920 | 64 | 246 | 8.0 | 13.0 | 0.00 | 0.00 | 0.00 | 32 | 990.1 |
| 20260503212418 | 64 | 269 | 4.0 | 6.0 | 0.00 | 0.00 | 0.00 | 35 | 990.0 |
| 20260503211915 | 63 | 321 | 3.0 | 6.0 | 0.00 | 0.00 | 0.00 | 35 | 990.1 |
| 20260503211412 | 63 | 249 | 5.0 | 7.0 | 0.00 | 0.00 | 0.00 | 34 | 990.1 |
| 20260503210907 | 64 | 233 | 6.0 | 8.0 | 0.00 | 0.00 | 0.00 | 34 | 990.0 |
| 20260503210404 | 64 | 303 | 4.0 | 7.0 | 0.00 | 0.00 | 0.00 | 33 | 990.0 |
| 20260503205859 | 64 | 208 | 9.0 | 10.0 | 0.00 | 0.00 | 0.00 | 32 | 990.0 |
| 20260503205356 | 64 | 248 | 4.0 | 7.0 | 0.00 | 0.00 | 0.00 | 32 | 990.3 |
| 20260503204852 | 64 | 237 | 6.0 | 9.0 | 0.00 | 0.00 | 0.00 | 32 | 990.2 |
| 20260503204349 | 64 | 240 | 6.0 | 8.0 | 0.00 | 0.00 | 0.00 | 32 | 990.2 |
| 20260503203847 | 63 | 293 | 4.0 | 7.0 | 0.00 | 0.00 | 0.00 | 33 | 990.3 |
| 20260503203344 | 63 | 228 | 8.0 | 10.0 | 0.00 | 0.00 | 0.00 | 32 | 990.4 |
| 20260503202841 | 64 | 245 | 10.0 | 13.0 | 0.00 | 0.00 | 0.00 | 32 | 990.3 |
| 20260503202339 | 64 | 245 | 6.0 | 8.0 | 0.00 | 0.00 | 0.00 | 33 | 990.3 |
| 20260503201837 | 64 | 251 | 4.0 | 6.0 | 0.00 | 0.00 | 0.00 | 33 | 990.6 |
| 20260503201334 | 64 | 259 | 5.0 | 7.0 | 0.00 | 0.00 | 0.00 | 32 | 990.5 |
| 20260503200832 | 64 | 236 | 8.0 | 9.0 | 0.00 | 0.00 | 0.00 | 32 | 990.6 |
| 20260503200327 | 64 | 242 | 8.0 | 8.0 | 0.00 | 0.00 | 0.00 | 32 | 990.6 |
| 20260503195825 | 64 | 236 | 6.0 | 9.0 | 0.00 | 0.00 | 0.00 | 33 | 990.5 |
| 20260503195321 | 64 | 259 | 7.0 | 10.0 | 0.00 | 0.00 | 0.00 | 33 | 990.6 |
| 20260503194819 | 64 | 259 | 6.0 | 8.0 | 0.00 | 0.00 | 0.00 | 32 | 990.7 |
| 20260503194314 | 65 | 232 | 6.0 | 7.0 | 0.00 | 0.00 | 0.00 | 33 | 990.9 |
| 20260503193810 | 64 | 252 | 8.0 | 10.0 | 0.00 | 0.00 | 0.00 | 33 | 990.7 |
| 20260503193307 | 64 | 249 | 5.0 | 7.0 | 0.00 | 0.00 | 0.00 | 33 | 990.8 |
| 20260503192803 | 64 | 277 | 8.0 | 11.0 | 0.00 | 0.00 | 0.00 | 33 | 991.2 |
| 20260503192258 | 64 | 243 | 7.0 | 10.0 | 0.00 | 0.00 | 0.00 | 34 | 990.7 |
| 20260503191755 | 64 | 233 | 4.0 | 7.0 | 0.00 | 0.00 | 0.00 | 33 | 991.3 |
| 20260503191252 | 64 | 232 | 8.0 | 10.0 | 0.00 | 0.00 | 0.00 | 32 | 991.2 |
| 20260503190748 | 64 | 319 | 4.0 | 6.0 | 0.00 | 0.00 | 0.00 | 35 | 991.4 |
| 20260503190245 | 63 | 281 | 4.0 | 4.0 | 0.00 | 0.00 | 0.00 | 33 | 991.2 |
| 20260503185743 | 63 | 249 | 8.0 | 10.0 | 0.00 | 0.00 | 0.00 | 33 | 991.5 |
| 20260503185238 | 64 | 253 | 6.0 | 8.0 | 0.00 | 0.00 | 0.00 | 32 | 991.4 |
| 20260503184733 | 64 | 227 | 6.0 | 10.0 | 0.00 | 0.00 | 0.00 | 34 | 991.6 |
| 20260503184230 | 64 | 243 | 6.0 | 7.0 | 0.00 | 0.00 | 0.00 | 33 | 991.6 |
| 20260503183726 | 63 | 252 | 7.0 | 9.0 | 0.00 | 0.00 | 0.00 | 34 | 991.6 |
| 20260503183223 | 63 | 235 | 8.0 | 9.0 | 0.00 | 0.00 | 0.00 | 35 | 991.9 |
| 20260503182721 | 63 | 248 | 6.0 | 9.0 | 0.00 | 0.00 | 0.00 | 36 | 991.7 |
| 20260503182220 | 64 | 254 | 5.0 | 7.0 | 0.00 | 0.00 | 0.00 | 34 | 991.9 |
| 20260503181716 | 64 | 235 | 6.0 | 8.0 | 0.00 | 0.00 | 0.00 | 33 | 992.0 |
| 20260503181213 | 64 | 250 | 4.0 | 6.0 | 0.00 | 0.00 | 0.00 | 35 | 992.0 |
| 20260503180709 | 64 | 257 | 8.0 | 9.0 | 0.00 | 0.00 | 0.00 | 33 | 992.1 |
| 20260503180208 | 64 | 258 | 4.0 | 6.0 | 0.00 | 0.00 | 0.00 | 32 | 992.2 |
| 20260503175704 | 63 | 271 | 4.0 | 6.0 | 0.00 | 0.00 | 0.00 | 36 | 992.3 |
| 20260503175202 | 63 | 180 | 6.0 | 8.0 | 0.00 | 0.00 | 0.00 | 33 | 992.3 |
| 20260503174657 | 63 | 267 | 8.0 | 10.0 | 0.00 | 0.00 | 0.00 | 33 | 992.3 |
| 20260503174155 | 63 | 250 | 6.0 | 9.0 | 0.00 | 0.00 | 0.00 | 35 | 992.4 |
| 20260503173650 | 63 | 232 | 6.0 | 7.0 | 0.00 | 0.00 | 0.00 | 35 | 992.3 |
| 20260503173147 | 62 | 249 | 5.0 | 8.0 | 0.00 | 0.00 | 0.00 | 37 | 992.4 |
| 20260503172644 | 63 | 238 | 6.0 | 10.0 | 0.00 | 0.00 | 0.00 | 35 | 992.5 |
| 20260503172141 | 62 | 269 | 5.0 | 6.0 | 0.00 | 0.00 | 0.00 | 37 | 992.7 |
| 20260503171637 | 63 | 248 | 9.0 | 13.0 | 0.00 | 0.00 | 0.00 | 35 | 992.6 |
| 20260503171135 | 63 | 259 | 5.0 | 7.0 | 0.00 | 0.00 | 0.00 | 38 | 992.9 |
| 20260503170632 | 63 | 242 | 5.0 | 7.0 | 0.00 | 0.00 | 0.00 | 36 | 992.9 |
| 20260503170128 | 63 | 246 | 4.0 | 4.0 | 0.00 | 0.00 | 0.00 | 41 | 993.1 |
| 20260503150520 | 56 | 253 | 4.0 | 4.0 | 0.00 | 0.00 | 0.00 | 47 | 994.4 |
| 20260503131413 | 50 | 243 | 4.0 | 6.0 | 0.00 | 0.00 | 0.00 | 52 | 994.2 |
| 20260503130910 | 50 | 235 | 3.0 | 7.0 | 0.00 | 0.00 | 0.00 | 53 | 994.5 |
| 20260503130408 | 49 | 237 | 4.0 | 4.0 | 0.00 | 0.00 | 0.00 | 53 | 994.5 |
| 20260503110811 | 36 | 358 | 0.0 | 0.0 | 0.00 | 0.00 | 0.00 | 77 | 994.5 |
| 20260503110308 | 36 | 307 | 0.0 | 0.0 | 0.00 | 0.00 | 0.00 | 77 | 994.2 |
| 20260503100235 | 37 | 296 | 0.0 | 0.0 | 0.00 | 0.00 | 0.00 | 75 | 994.4 |
| 20260503090154 | 37 | 280 | 1.0 | 1.0 | 0.00 | 0.00 | 0.00 | 73 | 994.6 |
| 20260503081624 | 37 | 251 | 1.0 | 1.0 | 0.00 | 0.00 | 0.00 | 74 | 994.8 |
| 20260503081121 | 37 | 266 | 1.0 | 1.0 | 0.00 | 0.00 | 0.00 | 74 | 994.9 |
| 20260503080617 | 37 | 247 | 1.0 | 1.0 | 0.00 | 0.00 | 0.00 | 73 | 994.8 |
| 20260503080114 | 38 | 244 | 1.0 | 1.0 | 0.00 | 0.00 | 0.00 | 73 | 994.5 |
| 20260503072551 | 38 | 249 | 1.0 | 1.0 | 0.00 | 0.00 | 0.00 | 73 | 994.7 |
| 20260503072048 | 38 | 240 | 1.0 | 1.0 | 0.00 | 0.00 | 0.00 | 73 | 994.6 |
| 20260503071544 | 38 | 247 | 2.0 | 2.0 | 0.00 | 0.00 | 0.00 | 73 | 994.8 |
| 20260503071041 | 38 | 251 | 1.0 | 1.0 | 0.00 | 0.00 | 0.00 | 73 | 994.7 |
| 20260503070537 | 38 | 245 | 2.0 | 2.0 | 0.00 | 0.00 | 0.00 | 72 | 994.8 |
| 20260503054951 | 40 | 250 | 1.0 | 1.0 | 0.00 | 0.00 | 0.00 | 67 | 995.1 |
| 20260503054447 | 40 | 237 | 1.0 | 2.0 | 0.00 | 0.00 | 0.00 | 67 | 995.1 |
| 20260503053945 | 40 | 238 | 1.0 | 2.0 | 0.00 | 0.00 | 0.00 | 68 | 995.2 |
| 20260503053443 | 40 | 253 | 1.0 | 1.0 | 0.00 | 0.00 | 0.00 | 67 | 995.3 |
| 20260503052939 | 40 | 246 | 1.0 | 2.0 | 0.00 | 0.00 | 0.00 | 67 | 995.2 |
| 20260503052437 | 41 | 250 | 1.0 | 2.0 | 0.00 | 0.00 | 0.00 | 66 | 995.2 |
| 20260503051933 | 41 | 254 | 1.0 | 2.0 | 0.00 | 0.00 | 0.00 | 66 | 995.5 |
| 20260503051429 | 41 | 246 | 0.0 | 1.0 | 0.00 | 0.00 | 0.00 | 67 | 995.3 |
| 20260503050926 | 41 | 253 | 1.0 | 1.0 | 0.00 | 0.00 | 0.00 | 66 | 995.3 |
| 20260503050422 | 41 | 238 | 1.0 | 1.0 | 0.00 | 0.00 | 0.00 | 67 | 995.4 |
| 20260503045920 | 41 | 243 | 1.0 | 1.0 | 0.00 | 0.00 | 0.00 | 67 | 995.4 |
| 20260503045417 | 41 | 265 | 1.0 | 1.0 | 0.00 | 0.00 | 0.00 | 68 | 995.4 |
| 20260503044914 | 41 | 252 | 1.0 | 1.0 | 0.00 | 0.00 | 0.00 | 66 | 995.3 |
| 20260503044411 | 41 | 241 | 1.0 | 2.0 | 0.00 | 0.00 | 0.00 | 66 | 995.5 |
| 20260503043908 | 41 | 243 | 1.0 | 1.0 | 0.00 | 0.00 | 0.00 | 66 | 995.2 |
| 20260503043404 | 42 | 257 | 1.0 | 1.0 | 0.00 | 0.00 | 0.00 | 66 | 995.4 |
| 20260503042901 | 42 | 246 | 1.0 | 1.0 | 0.00 | 0.00 | 0.00 | 66 | 995.1 |
| 20260503042357 | 42 | 241 | 1.0 | 1.0 | 0.00 | 0.00 | 0.00 | 65 | 995.0 |
| 20260503041854 | 42 | 233 | 1.0 | 1.0 | 0.00 | 0.00 | 0.00 | 65 | 995.3 |
| 20260503041351 | 42 | 248 | 1.0 | 1.0 | 0.00 | 0.00 | 0.00 | 65 | 995.3 |
| 20260503040848 | 42 | 257 | 2.0 | 2.0 | 0.00 | 0.00 | 0.00 | 65 | 995.5 |
| 20260503040346 | 42 | 272 | 0.0 | 1.0 | 0.00 | 0.00 | 0.00 | 65 | 995.3 |
| 20260503035843 | 43 | 284 | 0.0 | 0.0 | 0.00 | 0.00 | 0.00 | 65 | 995.4 |
| 20260503035339 | 43 | 275 | 0.0 | 1.0 | 0.00 | 0.00 | 0.00 | 64 | 995.4 |
| 20260503034837 | 43 | 264 | 0.0 | 1.0 | 0.00 | 0.00 | 0.00 | 63 | 995.4 |
| 20260503034334 | 43 | 235 | 1.0 | 1.0 | 0.00 | 0.00 | 0.00 | 63 | 995.4 |
| 20260503033831 | 44 | 235 | 1.0 | 2.0 | 0.00 | 0.00 | 0.00 | 62 | 995.3 |
| 20260503033329 | 44 | 244 | 1.0 | 1.0 | 0.00 | 0.00 | 0.00 | 63 | 995.4 |
| 20260503032827 | 44 | 249 | 1.0 | 2.0 | 0.00 | 0.00 | 0.00 | 62 | 995.4 |
| 20260503032326 | 44 | 260 | 1.0 | 1.0 | 0.00 | 0.00 | 0.00 | 61 | 995.4 |
| 20260503031822 | 43 | 255 | 1.0 | 1.0 | 0.00 | 0.00 | 0.00 | 63 | 995.3 |
| 20260503031320 | 43 | 278 | 0.0 | 0.0 | 0.00 | 0.00 | 0.00 | 65 | 995.6 |
| 20260503030816 | 42 | 265 | 0.0 | 0.0 | 0.00 | 0.00 | 0.00 | 69 | 995.6 |
| 20260503030313 | 42 | 292 | 0.0 | 1.0 | 0.00 | 0.00 | 0.00 | 72 | 995.3 |
| 20260503025809 | 42 | 354 | 0.0 | 0.0 | 0.00 | 0.00 | 0.00 | 72 | 995.6 |
| 20260503025307 | 42 | 329 | 0.0 | 0.0 | 0.00 | 0.00 | 0.00 | 70 | 995.7 |
| 20260503024804 | 42 | 5 | 0.0 | 0.0 | 0.00 | 0.00 | 0.00 | 69 | 995.5 |
| 20260503024300 | 42 | 6 | 0.0 | 0.0 | 0.00 | 0.00 | 0.00 | 68 | 995.6 |
| 20260503023758 | 42 | 2 | 0.0 | 0.0 | 0.00 | 0.00 | 0.00 | 68 | 995.6 |
| 20260503023255 | 42 | 2 | 0.0 | 0.0 | 0.00 | 0.00 | 0.00 | 70 | 995.8 |
| 20260503022751 | 42 | 2 | 0.0 | 0.0 | 0.00 | 0.00 | 0.00 | 70 | 995.7 |
| 20260503022251 | 42 | 353 | 0.0 | 0.0 | 0.00 | 0.00 | 0.00 | 68 | 995.7 |
| 20260503021748 | 42 | 353 | 0.0 | 0.0 | 0.00 | 0.00 | 0.00 | 68 | 995.6 |
| 20260503021244 | 42 | 353 | 0.0 | 0.0 | 0.00 | 0.00 | 0.00 | 68 | 995.5 |
| 20260503020742 | 42 | 353 | 0.0 | 0.0 | 0.00 | 0.00 | 0.00 | 69 | 995.7 |
| 20260503020239 | 43 | 14 | 0.0 | 0.0 | 0.00 | 0.00 | 0.00 | 68 | 995.9 |
| 20260503015735 | 43 | 10 | 0.0 | 0.0 | 0.00 | 0.00 | 0.00 | 69 | 995.6 |
| 20260503015232 | 43 | 10 | 0.0 | 0.0 | 0.00 | 0.00 | 0.00 | 66 | 995.6 |
| 20260503014728 | 43 | 10 | 0.0 | 0.0 | 0.00 | 0.00 | 0.00 | 65 | 995.6 |
| 20260503014227 | 43 | 10 | 0.0 | 0.0 | 0.00 | 0.00 | 0.00 | 65 | 995.5 |
| 20260503013723 | 43 | 10 | 0.0 | 0.0 | 0.00 | 0.00 | 0.00 | 65 | 995.5 |
| 20260503013221 | 43 | 10 | 0.0 | 0.0 | 0.00 | 0.00 | 0.00 | 65 | 995.7 |
| 20260503012718 | 43 | 10 | 0.0 | 0.0 | 0.00 | 0.00 | 0.00 | 65 | 995.6 |
| 20260503012215 | 43 | 10 | 0.0 | 0.0 | 0.00 | 0.00 | 0.00 | 63 | 995.3 |
| 20260503011712 | 43 | 10 | 0.0 | 0.0 | 0.00 | 0.00 | 0.00 | 62 | 995.5 |
| 20260503011209 | 44 | 10 | 0.0 | 0.0 | 0.00 | 0.00 | 0.00 | 62 | 995.5 |
| 20260503010705 | 44 | 350 | 0.0 | 0.0 | 0.00 | 0.00 | 0.00 | 64 | 995.3 |
| 20260503010202 | 44 | 350 | 0.0 | 0.0 | 0.00 | 0.00 | 0.00 | 63 | 995.5 |
| 20260503005659 | 44 | 350 | 0.0 | 0.0 | 0.00 | 0.00 | 0.00 | 62 | 995.3 |
| 20260503005156 | 44 | 350 | 0.0 | 0.0 | 0.00 | 0.00 | 0.00 | 60 | 995.4 |
| 20260503004652 | 45 | 350 | 0.0 | 0.0 | 0.00 | 0.00 | 0.00 | 60 | 995.3 |
| 20260503004151 | 45 | 350 | 0.0 | 0.0 | 0.00 | 0.00 | 0.00 | 58 | 995.2 |
| 20260503003648 | 45 | 350 | 0.0 | 0.0 | 0.00 | 0.00 | 0.00 | 58 | 995.4 |
| 20260503003145 | 45 | 343 | 0.0 | 0.0 | 0.00 | 0.00 | 0.00 | 57 | 995.4 |
| 20260503002641 | 46 | 342 | 0.0 | 0.0 | 0.00 | 0.00 | 0.00 | 57 | 995.4 |
| 20260503002138 | 46 | 350 | 0.0 | 0.0 | 0.00 | 0.00 | 0.00 | 55 | 995.3 |
| 20260503001634 | 46 | 336 | 0.0 | 0.0 | 0.00 | 0.00 | 0.00 | 56 | 995.4 |
| 20260503001131 | 46 | 336 | 0.0 | 0.0 | 0.00 | 0.00 | 0.00 | 55 | 995.4 |
| 20260503000629 | 46 | 320 | 0.0 | 0.0 | 0.00 | 0.00 | 0.00 | 51 | 995.4 |
| 20260503000126 | 47 | 322 | 0.0 | 0.0 | 0.00 | 0.00 | 0.00 | 53 | 995.2 |
| 20260502235622 | 47 | 331 | 0.0 | 0.0 | 0.00 | 0.00 | 0.00 | 51 | 995.0 |
| 20260502235121 | 47 | 333 | 0.0 | 0.0 | 0.00 | 0.00 | 0.00 | 50 | 995.4 |
| 20260502234616 | 47 | 327 | 0.0 | 0.0 | 0.00 | 0.00 | 0.00 | 52 | 995.3 |
| 20260502234114 | 48 | 330 | 0.0 | 0.0 | 0.00 | 0.00 | 0.00 | 49 | 995.3 |
| 20260502233609 | 48 | 311 | 0.0 | 0.0 | 0.00 | 0.00 | 0.00 | 49 | 995.1 |
| 20260502233107 | 48 | 305 | 0.0 | 0.0 | 0.00 | 0.00 | 0.00 | 48 | 995.1 |
| 20260502232602 | 48 | 283 | 0.0 | 0.0 | 0.00 | 0.00 | 0.00 | 48 | 995.2 |
| 20260502232100 | 48 | 320 | 0.0 | 0.0 | 0.00 | 0.00 | 0.00 | 48 | 995.2 |
| 20260502231557 | 48 | 317 | 1.0 | 1.0 | 0.00 | 0.00 | 0.00 | 46 | 995.2 |
| 20260502231055 | 48 | 316 | 0.0 | 0.0 | 0.00 | 0.00 | 0.00 | 47 | 995.3 |
| 20260502230553 | 48 | 283 | 0.0 | 0.0 | 0.00 | 0.00 | 0.00 | 47 | 995.2 |
| 20260502230051 | 49 | 295 | 0.0 | 1.0 | 0.00 | 0.00 | 0.00 | 43 | 995.3 |
| 20260502225546 | 49 | 357 | 0.0 | 0.0 | 0.00 | 0.00 | 0.00 | 47 | 995.4 |
| 20260502225043 | 49 | 335 | 0.0 | 1.0 | 0.00 | 0.00 | 0.00 | 44 | 995.3 |
| 20260502224539 | 49 | 350 | 0.0 | 0.0 | 0.00 | 0.00 | 0.00 | 45 | 995.4 |